Stations météo

Publicité
Montauban, France (7540): Température de l'air & dewpoint: 18.02.2020 22:00:00 - 24.02.2020 22:00:00 (CET)Montauban, France (7540): Température de l'air 5cm: 18.02.2020 22:00:00 - 24.02.2020 22:00:00 (CET)Montauban, France (7540): Température de l'air -20cm & Température de l'air -100cm: 18.02.2020 22:00:00 - 24.02.2020 22:00:00 (CET)Montauban, France (7540): Vitesse du vent & gusts: 18.02.2020 22:00:00 - 24.02.2020 22:00:00 (CET)Montauban, France (7540): Direction du vent: 18.02.2020 22:00:00 - 24.02.2020 22:00:00 (CET)Montauban, France (7540): reduced air pressure: 18.02.2020 22:00:00 - 24.02.2020 22:00:00 (CET)Montauban, France (7540): visibility: 18.02.2020 22:00:00 - 24.02.2020 22:00:00 (CET)Montauban, France (7540): Ensoleillement: 18.02.2020 22:00:00 - 24.02.2020 22:00:00 (CET)Montauban, France (7540): Quantités de précipitations: 18.02.2020 22:00:00 - 24.02.2020 22:00:00 (CET)
Date & Time tt [°C] td [°C] tt 5cm [°C] tt -20cm [°C] tt -100cm [°C] ff [km/h] ff [knt] fx [km/h] fx [knt] dd ppp [hPa] vv [km] sd [min] rr [mm]
24.02.2020 22:00:00 4,6 3,1 2,2 10,1 10,7 3 2 4 2 S 1022,3 8 0 0,0
24.02.2020 21:00:00 6,0 4,6 3,0 10,0 10,6 2 1 5 3 S 1022,1 7 0 0,0
24.02.2020 20:00:00 7,0 4,0 3,6 10,0 10,7 0 0 4 2 N 1022,0 13 0 0,0
24.02.2020 19:00:00 11,5 6,2 6,9 9,8 10,7 3 2 7 4 NW 1021,8 19 13 0,0
24.02.2020 18:00:00 13,8 7,1 14,8 9,7 10,7 6 3 9 5 NW 1021,9 19 60 0,0
24.02.2020 17:00:00 15,0 7,5 18,6 9,5 10,7 6 3 12 7 W 1022,2 20 60 0,0
24.02.2020 16:00:00 14,8 7,6 19,0 9,4 10,6 3 2 15 8 WNW 1022,8 18 60 0,0
24.02.2020 15:00:00 12,4 6,9 17,5 9,3 10,6 5 3 10 5 NW 1024,5 19 60 0,0
24.02.2020 14:00:00 8,8 8,2 10,3 9,2 10,6 3 1 12 6 ENE 1025,6 14 27 0,0
24.02.2020 13:00:00 6,4 6,3 8,3 9,2 10,6 6 3 11 6 ENE 1027,1 3,2 0 0,0
24.02.2020 12:00:00 5,1 5,0 7,0 9,2 10,6 5 3 10 5 E 1028,3 0,5 0 0,0
24.02.2020 11:00:00 3,9 3,8 4,5 9,2 10,6 0 0 6 3 N 1029,2 0,2 0 0,0
24.02.2020 10:00:00 3,0 2,9 3,1 9,3 10,6 2 1 6 4 S 1029,8 0,2 0 0,0
24.02.2020 09:00:00 2,0 1,9 2,7 9,3 10,6 3 1 7 4 ESE 1030,0 0,4 0 0,0
24.02.2020 08:00:00 2,6 2,3 2,8 9,4 10,6 5 3 6 3 SE 1029,7 0,2 0 0,0
24.02.2020 07:00:00 2,7 2,4 2,8 9,5 10,6 2 1 7 4 SSE 1030,0 0,4 0 0,0
24.02.2020 06:00:00 3,5 3,2 3,6 9,5 10,7 0 0 8 5 N 1030,3 0,1 0 0,0
24.02.2020 05:00:00 3,6 3,3 3,8 9,6 10,6 3 2 7 4 E 1030,6 0,1 0 0,0
24.02.2020 04:00:00 4,0 3,7 3,7 9,7 10,6 4 2 8 4 ENE 1030,9 0,1 0 0,0
24.02.2020 03:00:00 3,4 3,1 2,0 9,8 10,7 4 2 8 4 ESE 1031,8 0,1 0 0,0
24.02.2020 02:00:00 2,7 2,1 -0,5 9,8 10,7 2 1 5 3 E 1032,5 0,2 0 0,0
24.02.2020 01:00:00 2,9 2,0 -0,2 9,9 10,6 0 0 3 2 N 1033,0 8 0 0,0
24.02.2020 00:00:00 3,7 2,8 0,5 9,9 10,6 2 1 4 2 WSW 1033,2 4,7 0 0,0
23.02.2020 23:00:00 4,7 3,7 1,2 10,0 10,6 0 0 6 4 N 1033,6 6 0 0,0
23.02.2020 22:00:00 6,4 5,0 2,5 10,0 10,6 2 1 9 5 W 1033,7 8 0 0,0
23.02.2020 21:00:00 7,7 6,0 6,1 9,9 10,7 6 3 13 7 WNW 1033,4 11 0 0,0
23.02.2020 20:00:00 8,8 6,6 7,2 9,8 10,6 7 4 18 10 W 1033,4 14 0 0,0
23.02.2020 19:00:00 10,6 6,5 8,9 9,7 10,6 9 5 15 8 WNW 1032,8 20 11 0,0
23.02.2020 18:00:00 13,3 6,9 14,1 9,5 10,6 10 6 15 8 WNW 1032,4 20 60 0,0
23.02.2020 17:00:00 14,7 6,8 18,1 9,3 10,6 8 5 12 7 WNW 1032,2 19 60 0,0
23.02.2020 16:00:00 14,7 6,8 18,0 9,1 10,6 7 4 11 6 WNW 1032,6 18 60 0,0
23.02.2020 15:00:00 12,6 7,9 16,4 9,0 10,6 7 4 16 8 WNW 1033,2 17 60 0,0
23.02.2020 14:00:00 10,8 6,9 15,4 8,9 10,7 9 5 14 8 WNW 1033,5 14 60 0,0
23.02.2020 13:00:00 10,2 6,3 13,8 8,8 10,6 8 5 12 7 WNW 1034,5 12 60 0,0
23.02.2020 12:00:00 8,6 5,5 14,2 8,8 10,6 9 5 15 8 WNW 1035,1 11 60 0,0
23.02.2020 11:00:00 8,9 4,5 12,2 8,9 10,6 3 1 7 4 NNW 1035,2 18 60 0,0
23.02.2020 10:00:00 7,2 3,6 7,5 9,0 10,6 0 0 5 3 N 1035,1 20 60 0,0
23.02.2020 09:00:00 3,7 2,7 -0,1 9,1 10,7 2 1 4 2 ESE 1035,3 14 56 0,0
23.02.2020 08:00:00 0,7 0,0 -2,1 9,2 10,6 0 0 3 2 N 1035,0 16 0 0,0
23.02.2020 07:00:00 1,0 0,1 -1,5 9,3 10,6 2 1 3 2 W 1034,4 12 0 0,0
23.02.2020 06:00:00 1,3 0,4 -0,9 9,4 10,7 0 0 4 2 N 1034,4 15 0 0,0
23.02.2020 05:00:00 2,0 1,0 -0,1 9,5 10,6 4 2 8 4 E 1034,1 14 0 0,0
23.02.2020 04:00:00 2,4 0,9 0,0 9,6 10,6 2 1 9 5 E 1034,3 13 0 0,0
23.02.2020 03:00:00 1,9 0,7 0,0 9,7 10,7 4 2 8 4 S 1034,5 16 0 0,0
23.02.2020 02:00:00 2,4 0,9 0,5 9,7 10,7 3 2 6 3 S 1035,1 13 0 0,0
23.02.2020 01:00:00 3,5 2,0 0,8 9,8 10,7 2 1 8 4 E 1035,2 15 0 0,0
23.02.2020 00:00:00 4,9 3,1 1,6 9,8 10,6 3 1 5 3 NE 1035,5 18 0 0,0
22.02.2020 23:00:00 5,9 3,4 2,6 9,9 10,7 3 1 6 3 SE 1035,8 18 0 0,0
22.02.2020 22:00:00 5,2 2,5 2,7 9,8 10,7 3 2 4 2 SE 1036,0 19 0 0,0
22.02.2020 21:00:00 7,5 3,0 3,8 9,8 10,7 0 0 8 4 N 1035,3 17 0 0,0
22.02.2020 20:00:00 9,9 4,7 4,7 9,7 10,6 6 3 9 5 WSW 1034,9 20 0 0,0
22.02.2020 19:00:00 11,4 4,6 6,4 9,6 10,7 4 2 7 4 SSW 1033,8 20 10 0,0
22.02.2020 18:00:00 15,4 5,0 16,4 9,4 10,7 4 2 12 6 W 1033,4 20 60 0,0
22.02.2020 17:00:00 16,1 4,5 19,7 9,2 10,7 6 3 15 8 NW 1032,9 20 60 0,0
22.02.2020 16:00:00 15,7 3,1 20,5 9,0 10,7 10 5 15 8 NW 1032,7 20 60 0,0
22.02.2020 15:00:00 15,4 4,7 20,6 8,8 10,7 5 3 14 8 WNW 1032,9 19 60 0,0
22.02.2020 14:00:00 14,6 5,4 18,6 8,7 10,7 4 2 14 7 N 1033,2 20 60 0,0
22.02.2020 13:00:00 12,9 4,6 17,3 8,7 10,6 5 3 11 6 NW 1034,4 20 60 0,0
22.02.2020 12:00:00 11,8 4,5 14,5 8,7 10,7 2 1 12 7 SE 1034,3 20 60 0,0
22.02.2020 11:00:00 8,8 5,0 11,1 8,8 10,6 3 1 7 4 SE 1035,1 19 60 0,0
22.02.2020 10:00:00 5,4 3,4 6,9 8,9 10,7 0 0 4 2 N 1034,9 18 60 0,0
22.02.2020 09:00:00 2,6 2,0 -2,0 9,0 10,7 2 1 4 2 ESE 1034,5 12 54 0,0
22.02.2020 08:00:00 -0,8 -1,5 -2,8 9,1 10,7 0 0 4 2 N 1033,7 11 0 0,0
22.02.2020 07:00:00 -0,2 -0,9 -2,7 9,2 10,7 0 0 3 2 N 1032,9 12 0 0,0
22.02.2020 06:00:00 0,3 -0,3 -2,2 9,4 10,7 0 0 5 3 N 1032,6 10 0 0,0
22.02.2020 05:00:00 1,1 0,4 -1,5 9,4 10,7 3 2 7 4 ENE 1032,0 9 0 0,0
22.02.2020 04:00:00 0,8 0,1 -1,7 9,6 10,7 3 1 4 2 S 1031,9 13 0 0,0
22.02.2020 03:00:00 1,2 0,3 -1,3 9,6 10,7 2 1 5 3 ESE 1032,4 10 0 0,0
22.02.2020 02:00:00 2,1 1,1 -0,6 9,7 10,7 0 0 5 3 N 1032,4 18 0 0,0
22.02.2020 01:00:00 3,2 2,0 0,4 9,8 10,7 0 0 9 5 N 1032,9 12 0 0,0
22.02.2020 00:00:00 3,8 2,5 0,7 9,9 10,7 0 0 4 2 N 1033,0 15 0 0,0
21.02.2020 23:00:00 4,1 2,6 1,6 9,9 10,7 3 2 5 3 S 1032,8 15 0 0,0
21.02.2020 22:00:00 4,5 2,5 1,9 9,9 10,7 4 2 6 3 S 1032,4 20 0 0,0
21.02.2020 21:00:00 8,1 4,7 3,5 9,9 10,7 4 2 10 5 NNW 1032,1 20 0 0,0
21.02.2020 20:00:00 9,0 4,4 4,8 9,9 10,7 4 2 10 5 WSW 1031,8 20 0 0,0
21.02.2020 19:00:00 10,3 4,6 7,2 9,8 10,7 5 3 15 8 WSW 1031,5 13 9 0,0
21.02.2020 18:00:00 12,4 4,8 12,5 9,7 10,7 10 5 19 10 W 1031,5 20 60 0,0
21.02.2020 17:00:00 13,2 5,1 13,3 9,6 10,7 13 7 23 12 WNW 1031,3 20 55 0,0
21.02.2020 16:00:00 13,3 5,4 13,6 9,5 10,7 13 7 24 13 W 1031,6 20 27 0,0
21.02.2020 15:00:00 12,3 6,6 13,3 9,4 10,7 13 7 22 12 NW 1031,8 20 0 0,0
21.02.2020 14:00:00 12,0 7,1 13,2 9,3 10,7 12 6 21 11 NNW 1032,3 20 0 0,0
21.02.2020 13:00:00 11,9 8,0 13,5 9,2 10,7 10 5 17 9 W 1032,9 20 0 0,0
21.02.2020 12:00:00 11,2 8,4 11,5 9,2 10,7 7 4 12 7 W 1033,2 20 0 0,0
21.02.2020 11:00:00 9,8 8,2 10,1 9,2 10,7 5 3 11 6 WNW 1033,0 15 0 0,0
21.02.2020 10:00:00 8,6 7,5 8,5 9,2 10,7 5 3 11 6 W 1032,9 9 0 0,0
21.02.2020 09:00:00 8,0 6,8 7,2 9,2 10,7 6 3 10 5 WNW 1032,7 11 0 0,0
21.02.2020 08:00:00 7,6 6,1 6,9 9,2 10,7 3 2 5 3 WNW 1032,1 17 0 0,0
21.02.2020 07:00:00 7,5 5,6 6,9 9,3 10,7 0 0 5 3 N 1031,7 18 0 0,0
21.02.2020 06:00:00 7,6 4,5 7,0 9,3 10,7 0 0 4 2 N 1031,2 15 0 0,0
21.02.2020 05:00:00 7,6 4,5 6,0 9,4 10,7 4 2 6 4 W 1031,2 20 0 0,0
21.02.2020 04:00:00 7,0 3,6 4,9 9,4 10,7 0 0 7 4 N 1031,3 20 0 0,0
21.02.2020 03:00:00 7,0 3,1 4,9 9,5 10,7 4 2 8 4 W 1031,5 20 0 0,0
21.02.2020 02:00:00 7,6 3,1 3,4 9,6 10,7 5 3 11 6 W 1031,5 20 0 0,0
21.02.2020 01:00:00 6,4 2,1 3,2 9,6 10,7 5 3 10 6 W 1031,4 20 0 0,0
21.02.2020 00:00:00 6,2 2,1 1,7 9,7 10,7 6 3 10 5 W 1030,9 20 0 0,0
20.02.2020 23:00:00 5,3 1,6 1,8 9,7 10,7 5 3 9 5 W 1030,4 15 0 0,0
20.02.2020 22:00:00 5,6 2,2 2,6 9,7 10,7 3 2 5 3 WNW 1029,2 14 0 0,0
20.02.2020 21:00:00 7,4 2,9 3,7 9,7 10,7 0 0 2 1 N 1028,1 15 0 0,0
20.02.2020 20:00:00 9,7 3,0 4,3 9,6 10,7 0 0 10 6 N 1027,3 20 0 0,0
20.02.2020 19:00:00 12,5 3,2 7,5 9,4 10,7 5 3 12 7 WNW 1026,1 20 7 0,0
20.02.2020 18:00:00 15,5 3,9 15,7 9,2 10,7 8 4 18 10 NW 1024,8 20 60 0,0
20.02.2020 17:00:00 16,4 3,1 18,8 9,0 10,7 10 6 19 11 NW 1024,6 19 60 0,0
20.02.2020 16:00:00 16,9 4,2 21,1 8,8 10,7 10 5 14 8 NW 1024,1 20 60 0,0
20.02.2020 15:00:00 16,7 5,9 19,9 8,7 10,7 5 3 16 9 WSW 1024,0 20 60 0,0
20.02.2020 14:00:00 15,6 5,2 20,5 8,6 10,7 6 4 19 10 S 1024,2 20 60 0,0
20.02.2020 13:00:00 14,4 5,5 17,8 8,6 10,8 10 5 18 10 S 1024,7 20 60 0,0
20.02.2020 12:00:00 12,5 6,5 15,1 8,5 10,7 3 1 9 5 WSW 1025,3 20 60 0,0
20.02.2020 11:00:00 9,1 5,5 11,5 8,6 10,7 4 2 8 5 E 1025,2 20 60 0,0
20.02.2020 10:00:00 5,7 4,5 7,0 8,7 10,7 2 1 6 4 WNW 1026,0 20 60 0,0
20.02.2020 09:00:00 3,0 2,7 -2,0 8,8 10,7 0 0 3 2 N 1025,5 17 51 0,0
20.02.2020 08:00:00 -0,5 -0,9 -2,8 8,9 10,7 0 0 4 2 N 1025,3 13 0 0,0
20.02.2020 07:00:00 -0,2 -0,6 -2,5 9,0 10,7 3 1 5 3 E 1025,2 2,9 0 0,0
20.02.2020 06:00:00 0,0 -0,4 -2,0 9,1 10,8 4 2 6 3 ESE 1025,6 0,5 0 0,0
20.02.2020 05:00:00 0,5 -0,1 -1,8 9,2 10,7 0 0 6 3 N 1025,9 7 0 0,0
20.02.2020 04:00:00 1,1 0,5 -1,7 9,4 10,8 0 0 3 2 N 1026,5 15 0 0,0
20.02.2020 03:00:00 0,6 -0,3 -1,5 9,4 10,7 0 0 3 1 N 1027,0 1,8 0 0,0
20.02.2020 02:00:00 1,7 0,8 -0,6 9,5 10,8 0 0 3 2 N 1027,7 14 0 0,0
20.02.2020 01:00:00 2,4 1,5 -0,1 9,6 10,7 0 0 5 3 N 1028,1 15 0 0,0
20.02.2020 00:00:00 3,5 2,5 0,8 9,6 10,8 2 1 6 3 ENE 1028,5 15 0 0,0
19.02.2020 23:00:00 3,9 2,4 0,8 9,7 10,8 3 2 4 2 E 1029,0 12 0 0,0
19.02.2020 22:00:00 4,8 2,7 2,2 9,7 10,8 2 1 4 2 S 1029,5 14 0 0,0
19.02.2020 21:00:00 6,2 4,0 2,8 9,7 10,8 0 0 3 2 N 1029,7 18 0 0,0
19.02.2020 20:00:00 6,7 4,2 3,7 9,7 10,8 2 1 5 3 WSW 1030,0 18 0 0,0
19.02.2020 19:00:00 9,0 4,6 4,9 9,6 10,7 4 2 8 5 W 1030,2 14 0 0,0
19.02.2020 18:00:00 12,5 5,4 11,3 9,5 10,8 6 3 14 7 NNW 1030,0 20 40 0,0
19.02.2020 17:00:00 12,6 5,5 12,6 9,4 10,8 9 5 24 13 WNW 1030,2 20 11 0,0
19.02.2020 16:00:00 12,8 5,5 12,7 9,3 10,8 10 5 23 12 NW 1030,6 20 5 0,0
19.02.2020 15:00:00 12,5 5,2 12,7 9,2 10,8 13 7 24 13 WNW 1031,0 20 0 0,0
19.02.2020 14:00:00 12,8 6,2 13,0 9,0 10,7 18 10 29 15 WNW 1031,9 20 30 0,0
19.02.2020 13:00:00 12,5 6,5 12,2 9,0 10,7 19 10 30 16 W 1032,9 20 35 0,0
19.02.2020 12:00:00 11,5 7,2 12,0 9,1 10,8 15 8 24 13 WNW 1033,8 20 25 0,0
19.02.2020 11:00:00 9,6 6,7 11,0 9,0 10,8 11 6 22 12 NW 1034,3 20 46 0,0
19.02.2020 10:00:00 8,0 6,6 6,4 9,2 10,8 11 6 16 9 W 1034,3 20 33 0,0
19.02.2020 09:00:00 5,9 5,5 2,4 9,2 10,8 7 4 10 5 W 1034,4 20 42 0,0
19.02.2020 08:00:00 3,4 2,8 -0,1 9,3 10,8 3 1 5 3 WSW 1034,1 20 0 0,0
19.02.2020 07:00:00 3,1 2,4 0,2 9,4 10,8 4 2 6 3 SW 1033,8 17 0 0,0
19.02.2020 06:00:00 4,0 3,4 0,7 9,5 10,8 3 1 8 4 WSW 1033,3 17 0 0,0
19.02.2020 05:00:00 3,1 2,2 -0,2 9,6 10,8 2 1 4 2 WNW 1033,1 18 0 0,0
19.02.2020 04:00:00 4,3 3,1 1,0 9,7 10,8 3 2 9 5 W 1033,0 18 0 0,0
19.02.2020 03:00:00 4,7 3,4 1,4 9,8 10,8 5 3 9 5 W 1033,4 20 0 0,0
19.02.2020 02:00:00 4,7 3,0 1,3 9,8 10,8 4 2 9 5 SSW 1033,6 20 0 0,0
19.02.2020 01:00:00 5,3 3,3 2,8 9,9 10,8 4 2 13 7 WNW 1034,4 20 0 0,0
19.02.2020 00:00:00 5,8 3,3 3,3 10,0 10,8 5 3 12 7 WNW 1034,2 20 0 0,0
18.02.2020 23:00:00 6,7 4,2 3,4 10,0 10,8 6 4 14 8 WSW 1034,1 20 0 0,0
18.02.2020 22:00:00 7,8 4,2 5,6 10,0 10,8 5 3 13 7 W 1034,2 20 0 0,0

tt = Température de l'air
td = dewpoint
tt 5cm = Température de l'air 5cm
tt -20cm = Température de l'air -20cm
tt -100cm = Température de l'air -100cm
ff = Vitesse du vent
fx = gusts
dd = Direction du vent
ppp = reduced air pressure
vv = visibility
sd = Ensoleillement
rr = Quantités de précipitations

stations d'obs. à proximité